星链-5086 (STARLINK-5086 )

导读 | 豆包AI

STARLINK-5086是美国太空探索技术公司(SpaceX)星链互联网卫星星座的一员,于2022年12月28日在美国发射升空,属于星链项目中批量部署的近地轨道通信卫星。它主要用于为全球提供低延迟、高速率的卫星互联网服务,尤其可为偏远地区、海洋等地面网络覆盖不足区域提供互联网接入,星链星座也在后续持续推进发射组网,逐步完善全球卫星互联网布局。

基本信息
目录编号:
54856
目录名称:
STARLINK-5086
国际标识:
2022-177AN
轨道中心:
EARTH
卫星名称:
星链-5086
卫星全名:
星链-5086 (STARLINK-5086 )
卫星状态:
在轨 (已飞行1173 天)
发射日期:
2022-12-28 UTC
国别 :
美国 (US)
星等 :
--
轨道信息
数据来源 国际轨道数据
星历时间: 2026-03-15T06:00:02+0800
13小时前
查看轨道信息
半长轴: 6902.088km
偏心率: 0.0001151
轨道倾角: 43.001°
近地点辐角 275.612°
升交点赤经 91.276°
平近点角 280.411°
近地点: 523.156km
远地点: 524.746km
周期: 95.111分钟
每日圈数: 15.140215
详细信息
固有亮度:
5
最大亮度:
2.5
卫星平台:
Starlink v1.5
覆盖范围:
全球
运营商:
太空探索技术公司
运营商所在国:
美国
制造商(研发单位):
太空探索技术公司
制造商所在国:
美国
使用方式:
暂无
卫星简介
星链(Starlink)计划是由太空探索技术公司(SpaceX)提出的一个巨型低轨卫星互联网星座项目,计划在2019年至2024年间在太空搭建由约1.2万颗卫星组成的“星链”网络,其中1584颗将部署在地球上空550千米处的近地轨道,并从2020年开始工作。该卫星仍在工作。
2D轨道图
3D轨道图
轨道高度分析图
轨道倾角分析图
轨道综合分析图
查看轨道综合分析图